Il 0% ha trovato utile questo documento (0 voti)
9 visualizzazioni7 pagine

ID Date/time Temperature (°C) Humidity (%RH)

Il documento presenta una serie di dati di temperatura e umidità registrati tra il 5 e il 6 settembre 2023. Le misurazioni mostrano una variazione di temperatura da 21.90 °C a 19.60 °C e umidità da 43.90% a 37.60%. I dati sono organizzati in un formato tabellare con timestamp per ogni registrazione.

Caricato da

indonnie9
Copyright
© All Rights Reserved
Per noi i diritti sui contenuti sono una cosa seria. Se sospetti che questo contenuto sia tuo, rivendicalo qui.
Formati disponibili
Scarica in formato PDF, TXT o leggi online su Scribd
Il 0% ha trovato utile questo documento (0 voti)
9 visualizzazioni7 pagine

ID Date/time Temperature (°C) Humidity (%RH)

Il documento presenta una serie di dati di temperatura e umidità registrati tra il 5 e il 6 settembre 2023. Le misurazioni mostrano una variazione di temperatura da 21.90 °C a 19.60 °C e umidità da 43.90% a 37.60%. I dati sono organizzati in un formato tabellare con timestamp per ogni registrazione.

Caricato da

indonnie9
Copyright
© All Rights Reserved
Per noi i diritti sui contenuti sono una cosa seria. Se sospetti che questo contenuto sia tuo, rivendicalo qui.
Formati disponibili
Scarica in formato PDF, TXT o leggi online su Scribd

Page 1/7

9/8/2023 2:52:56 PM

ID Date/time Temperature [°C] Humidity [%rH]

1 9/5/2023 1:56:00 PM 21.90 43.90

2 9/5/2023 2:11:00 PM 21.20 44.90

3 9/5/2023 2:26:00 PM 20.90 45.10

4 9/5/2023 2:41:00 PM 20.90 45.20

5 9/5/2023 2:56:00 PM 20.90 45.00

6 9/5/2023 3:11:00 PM 20.90 44.60

7 9/5/2023 3:26:00 PM 20.90 44.20

8 9/5/2023 3:41:00 PM 20.90 43.90

9 9/5/2023 3:56:00 PM 20.90 43.90

10 9/5/2023 4:11:00 PM 21.00 43.70

11 9/5/2023 4:26:00 PM 21.00 43.50

12 9/5/2023 4:41:00 PM 21.00 43.30

13 9/5/2023 4:56:00 PM 21.10 43.10

14 9/5/2023 5:11:00 PM 21.10 42.90

15 9/5/2023 5:26:00 PM 21.10 42.50

16 9/5/2023 5:41:00 PM 21.00 42.30

17 9/5/2023 5:56:00 PM 21.00 42.10

18 9/5/2023 6:11:00 PM 20.90 42.10

19 9/5/2023 6:26:00 PM 20.90 42.10

20 9/5/2023 6:41:00 PM 20.90 42.00

21 9/5/2023 6:56:00 PM 20.90 42.00

22 9/5/2023 7:11:00 PM 20.80 41.80

23 9/5/2023 7:26:00 PM 20.80 41.80

24 9/5/2023 7:41:00 PM 20.80 41.60

25 9/5/2023 7:56:00 PM 20.80 41.30

26 9/5/2023 8:11:00 PM 20.70 41.30

27 9/5/2023 8:26:00 PM 20.70 41.30

28 9/5/2023 8:41:00 PM 20.70 41.10

29 9/5/2023 8:56:00 PM 20.70 40.90

30 9/5/2023 9:11:00 PM 20.70 40.60

31 9/5/2023 9:26:00 PM 20.70 40.60


Page 2/7
9/8/2023 2:52:56 PM

ID Date/time Temperature [°C] Humidity [%rH]

32 9/5/2023 9:41:00 PM 20.60 40.60

33 9/5/2023 9:56:00 PM 20.60 40.60

34 9/5/2023 10:11:00 PM 20.60 40.50

35 9/5/2023 10:26:00 PM 20.50 40.30

36 9/5/2023 10:41:00 PM 20.50 40.20

37 9/5/2023 10:56:00 PM 20.50 40.10

38 9/5/2023 11:11:00 PM 20.50 40.00

39 9/5/2023 11:26:00 PM 20.40 39.90

40 9/5/2023 11:41:00 PM 20.40 39.80

41 9/5/2023 11:56:00 PM 20.40 39.70

42 9/6/2023 12:11:00 AM 20.30 39.60

43 9/6/2023 12:26:00 AM 20.30 39.40

44 9/6/2023 12:41:00 AM 20.30 39.20

45 9/6/2023 12:56:00 AM 20.20 39.20

46 9/6/2023 1:11:00 AM 20.20 39.00

47 9/6/2023 1:26:00 AM 20.20 38.80

48 9/6/2023 1:41:00 AM 20.10 38.60

49 9/6/2023 1:56:00 AM 20.10 38.60

50 9/6/2023 2:11:00 AM 20.00 38.50

51 9/6/2023 2:26:00 AM 20.00 38.40

52 9/6/2023 2:41:00 AM 20.00 38.20

53 9/6/2023 2:56:00 AM 19.90 38.20

54 9/6/2023 3:11:00 AM 19.90 38.10

55 9/6/2023 3:26:00 AM 19.80 38.10

56 9/6/2023 3:41:00 AM 19.80 38.00

57 9/6/2023 3:56:00 AM 19.80 37.90

58 9/6/2023 4:11:00 AM 19.70 37.90

59 9/6/2023 4:26:00 AM 19.70 37.90

60 9/6/2023 4:41:00 AM 19.60 37.80

61 9/6/2023 4:56:00 AM 19.60 37.80

62 9/6/2023 5:11:00 AM 19.60 37.60

63 9/6/2023 5:26:00 AM 19.50 37.70

64 9/6/2023 5:41:00 AM 19.50 37.60

65 9/6/2023 5:56:00 AM 19.50 37.70

66 9/6/2023 6:11:00 AM 19.40 37.70

67 9/6/2023 6:26:00 AM 19.40 37.70

68 9/6/2023 6:41:00 AM 19.40 37.80

69 9/6/2023 6:56:00 AM 19.30 38.00

70 9/6/2023 7:11:00 AM 19.30 38.20

71 9/6/2023 7:26:00 AM 19.30 38.40

72 9/6/2023 7:41:00 AM 19.40 38.70

73 9/6/2023 7:56:00 AM 19.40 38.90

74 9/6/2023 8:11:00 AM 19.40 39.10

75 9/6/2023 8:26:00 AM 19.50 39.50

76 9/6/2023 8:41:00 AM 19.60 39.90


Page 3/7
9/8/2023 2:52:56 PM

ID Date/time Temperature [°C] Humidity [%rH]

77 9/6/2023 8:56:00 AM 19.60 40.10

78 9/6/2023 9:11:00 AM 19.60 40.30

79 9/6/2023 9:26:00 AM 19.70 40.80

80 9/6/2023 9:41:00 AM 19.80 41.10

81 9/6/2023 9:56:00 AM 19.90 41.20

82 9/6/2023 10:11:00 AM 20.00 41.40

83 9/6/2023 10:26:00 AM 20.00 41.60

84 9/6/2023 10:41:00 AM 20.10 41.60

85 9/6/2023 10:56:00 AM 20.20 41.90

86 9/6/2023 11:11:00 AM 20.20 42.10

87 9/6/2023 11:26:00 AM 20.30 42.30

88 9/6/2023 11:41:00 AM 20.40 42.50

89 9/6/2023 11:56:00 AM 20.50 42.60

90 9/6/2023 12:11:00 PM 20.60 42.80

91 9/6/2023 12:26:00 PM 20.70 42.90

92 9/6/2023 12:41:00 PM 20.70 42.90

93 9/6/2023 12:56:00 PM 20.80 42.90

94 9/6/2023 1:11:00 PM 20.80 43.00

95 9/6/2023 1:26:00 PM 20.90 43.00

96 9/6/2023 1:41:00 PM 21.00 43.10

97 9/6/2023 1:56:00 PM 21.00 43.40

98 9/6/2023 2:11:00 PM 21.10 44.50

99 9/6/2023 2:26:00 PM 21.10 44.80

100 9/6/2023 2:41:00 PM 21.00 44.20

101 9/6/2023 2:56:00 PM 20.80 43.80

102 9/6/2023 3:11:00 PM 20.80 43.20

103 9/6/2023 3:26:00 PM 20.80 42.90

104 9/6/2023 3:41:00 PM 20.70 43.00

105 9/6/2023 3:56:00 PM 20.70 42.90

106 9/6/2023 4:11:00 PM 20.60 42.80

107 9/6/2023 4:26:00 PM 20.60 42.60

108 9/6/2023 4:41:00 PM 20.60 42.30

109 9/6/2023 4:56:00 PM 20.60 42.10

110 9/6/2023 5:11:00 PM 20.40 42.20

111 9/6/2023 5:26:00 PM 20.40 42.00

112 9/6/2023 5:41:00 PM 20.40 41.70

113 9/6/2023 5:56:00 PM 20.40 41.70

114 9/6/2023 6:11:00 PM 20.40 41.30

115 9/6/2023 6:26:00 PM 20.30 41.40

116 9/6/2023 6:41:00 PM 20.20 41.20

117 9/6/2023 6:56:00 PM 20.10 41.10

118 9/6/2023 7:11:00 PM 20.10 40.90

119 9/6/2023 7:26:00 PM 20.00 40.70

120 9/6/2023 7:41:00 PM 20.00 40.70

121 9/6/2023 7:56:00 PM 19.90 40.70


Page 4/7
9/8/2023 2:52:56 PM

ID Date/time Temperature [°C] Humidity [%rH]

122 9/6/2023 8:11:00 PM 19.90 40.50

123 9/6/2023 8:26:00 PM 19.80 40.40

124 9/6/2023 8:41:00 PM 19.80 40.40

125 9/6/2023 8:56:00 PM 19.80 40.20

126 9/6/2023 9:11:00 PM 19.70 40.20

127 9/6/2023 9:26:00 PM 19.60 40.00

128 9/6/2023 9:41:00 PM 19.60 40.00

129 9/6/2023 9:56:00 PM 19.90 39.70

130 9/6/2023 10:11:00 PM 20.00 39.60

131 9/6/2023 10:26:00 PM 20.10 39.50

132 9/6/2023 10:41:00 PM 20.10 39.50

133 9/6/2023 10:56:00 PM 20.20 39.40

134 9/6/2023 11:11:00 PM 20.20 39.40

135 9/6/2023 11:26:00 PM 20.20 39.40

136 9/6/2023 11:41:00 PM 20.20 39.30

137 9/6/2023 11:56:00 PM 20.20 39.20

138 9/7/2023 12:11:00 AM 20.20 39.20

139 9/7/2023 12:26:00 AM 20.20 39.10

140 9/7/2023 12:41:00 AM 20.10 39.10

141 9/7/2023 12:56:00 AM 20.10 39.10

142 9/7/2023 1:11:00 AM 20.10 39.00

143 9/7/2023 1:26:00 AM 20.10 39.00

144 9/7/2023 1:41:00 AM 20.10 39.00

145 9/7/2023 1:56:00 AM 20.10 39.00

146 9/7/2023 2:11:00 AM 20.00 39.10

147 9/7/2023 2:26:00 AM 20.00 39.00

148 9/7/2023 2:41:00 AM 20.00 39.00

149 9/7/2023 2:56:00 AM 20.00 39.00

150 9/7/2023 3:11:00 AM 19.90 39.00

151 9/7/2023 3:26:00 AM 19.90 39.00

152 9/7/2023 3:41:00 AM 19.90 39.10

153 9/7/2023 3:56:00 AM 19.90 39.00

154 9/7/2023 4:11:00 AM 19.80 39.00

155 9/7/2023 4:26:00 AM 19.80 38.90

156 9/7/2023 4:41:00 AM 19.80 38.90

157 9/7/2023 4:56:00 AM 19.80 38.90

158 9/7/2023 5:11:00 AM 19.70 38.80

159 9/7/2023 5:26:00 AM 19.70 38.70

160 9/7/2023 5:41:00 AM 19.70 38.70

161 9/7/2023 5:56:00 AM 19.60 38.60

162 9/7/2023 6:11:00 AM 19.60 38.70

163 9/7/2023 6:26:00 AM 19.60 38.60

164 9/7/2023 6:41:00 AM 19.60 38.70

165 9/7/2023 6:56:00 AM 19.50 38.80

166 9/7/2023 7:11:00 AM 19.50 39.00


Page 5/7
9/8/2023 2:52:56 PM

ID Date/time Temperature [°C] Humidity [%rH]

167 9/7/2023 7:26:00 AM 19.60 39.20

168 9/7/2023 7:41:00 AM 19.60 39.50

169 9/7/2023 7:56:00 AM 19.60 39.70

170 9/7/2023 8:11:00 AM 19.70 39.90

171 9/7/2023 8:26:00 AM 19.70 40.20

172 9/7/2023 8:41:00 AM 19.80 40.40

173 9/7/2023 8:56:00 AM 19.80 40.70

174 9/7/2023 9:11:00 AM 19.90 41.10

175 9/7/2023 9:26:00 AM 20.00 41.40

176 9/7/2023 9:41:00 AM 20.10 41.60

177 9/7/2023 9:56:00 AM 20.10 41.60

178 9/7/2023 10:11:00 AM 20.20 41.70

179 9/7/2023 10:26:00 AM 20.20 41.80

180 9/7/2023 10:41:00 AM 20.30 42.00

181 9/7/2023 10:56:00 AM 20.40 42.10

182 9/7/2023 11:11:00 AM 20.50 42.30

183 9/7/2023 11:26:00 AM 20.60 42.50

184 9/7/2023 11:41:00 AM 20.70 42.70

185 9/7/2023 11:56:00 AM 20.70 42.70

186 9/7/2023 12:11:00 PM 20.80 42.90

187 9/7/2023 12:26:00 PM 20.90 43.10

188 9/7/2023 12:41:00 PM 20.90 43.10

189 9/7/2023 12:56:00 PM 21.00 43.10

190 9/7/2023 1:11:00 PM 21.10 43.40

191 9/7/2023 1:26:00 PM 21.10 43.30

192 9/7/2023 1:41:00 PM 21.20 43.70

193 9/7/2023 1:56:00 PM 21.20 43.30

194 9/7/2023 2:11:00 PM 21.20 42.90

195 9/7/2023 2:26:00 PM 21.20 42.80

196 9/7/2023 2:41:00 PM 21.20 42.70

197 9/7/2023 2:56:00 PM 21.30 42.50

198 9/7/2023 3:11:00 PM 21.30 42.40

199 9/7/2023 3:26:00 PM 21.30 42.40

200 9/7/2023 3:41:00 PM 21.30 42.30

201 9/7/2023 3:56:00 PM 21.40 42.20

202 9/7/2023 4:11:00 PM 21.40 42.40

203 9/7/2023 4:26:00 PM 21.40 42.50

204 9/7/2023 4:41:00 PM 21.50 42.30

205 9/7/2023 4:56:00 PM 21.50 42.10

206 9/7/2023 5:11:00 PM 21.50 42.00

207 9/7/2023 5:26:00 PM 21.50 41.80

208 9/7/2023 5:41:00 PM 21.50 41.60

209 9/7/2023 5:56:00 PM 21.40 41.50

210 9/7/2023 6:11:00 PM 21.40 41.50

211 9/7/2023 6:26:00 PM 21.40 41.40


Page 6/7
9/8/2023 2:52:56 PM

ID Date/time Temperature [°C] Humidity [%rH]

212 9/7/2023 6:41:00 PM 21.40 41.40

213 9/7/2023 6:56:00 PM 21.40 41.30

214 9/7/2023 7:11:00 PM 21.30 41.20

215 9/7/2023 7:26:00 PM 21.30 41.10

216 9/7/2023 7:41:00 PM 21.30 40.90

217 9/7/2023 7:56:00 PM 21.30 40.90

218 9/7/2023 8:11:00 PM 21.30 40.80

219 9/7/2023 8:26:00 PM 21.30 40.90

220 9/7/2023 8:41:00 PM 21.20 40.80

221 9/7/2023 8:56:00 PM 21.20 40.70

222 9/7/2023 9:11:00 PM 21.20 40.60

223 9/7/2023 9:26:00 PM 21.20 40.60

224 9/7/2023 9:41:00 PM 21.20 40.50

225 9/7/2023 9:56:00 PM 21.10 40.50

226 9/7/2023 10:11:00 PM 21.10 40.50

227 9/7/2023 10:26:00 PM 21.10 40.50

228 9/7/2023 10:41:00 PM 21.10 40.30

229 9/7/2023 10:56:00 PM 21.10 40.10

230 9/7/2023 11:11:00 PM 21.00 40.20

231 9/7/2023 11:26:00 PM 21.00 40.20

232 9/7/2023 11:41:00 PM 21.00 40.20

233 9/7/2023 11:56:00 PM 21.00 40.20

234 9/8/2023 12:11:00 AM 21.00 40.20

235 9/8/2023 12:26:00 AM 20.90 40.20

236 9/8/2023 12:41:00 AM 20.90 39.40

237 9/8/2023 12:56:00 AM 20.90 40.00

238 9/8/2023 1:11:00 AM 20.90 39.90

239 9/8/2023 1:26:00 AM 20.90 39.80

240 9/8/2023 1:41:00 AM 20.80 39.70

241 9/8/2023 1:56:00 AM 20.80 39.50

242 9/8/2023 2:11:00 AM 20.70 39.60

243 9/8/2023 2:26:00 AM 20.70 39.50

244 9/8/2023 2:41:00 AM 20.70 39.30

245 9/8/2023 2:56:00 AM 20.70 39.30

246 9/8/2023 3:11:00 AM 20.60 39.20

247 9/8/2023 3:26:00 AM 20.60 39.10

248 9/8/2023 3:41:00 AM 20.60 39.00

249 9/8/2023 3:56:00 AM 20.60 39.00

250 9/8/2023 4:11:00 AM 20.50 39.00

251 9/8/2023 4:26:00 AM 20.50 38.90

252 9/8/2023 4:41:00 AM 20.50 38.90

253 9/8/2023 4:56:00 AM 20.40 38.90

254 9/8/2023 5:11:00 AM 20.40 38.80

255 9/8/2023 5:26:00 AM 20.40 38.70

256 9/8/2023 5:41:00 AM 20.40 38.60


Page 7/7
9/8/2023 2:52:56 PM

ID Date/time Temperature [°C] Humidity [%rH]

257 9/8/2023 5:56:00 AM 20.30 38.60

258 9/8/2023 6:11:00 AM 20.30 38.60

259 9/8/2023 6:26:00 AM 20.30 38.70

260 9/8/2023 6:41:00 AM 20.20 38.70

261 9/8/2023 6:56:00 AM 20.20 38.70

262 9/8/2023 7:11:00 AM 20.20 38.80

263 9/8/2023 7:26:00 AM 20.20 38.90

264 9/8/2023 7:41:00 AM 20.30 39.10

265 9/8/2023 7:56:00 AM 20.30 39.30

266 9/8/2023 8:11:00 AM 20.30 39.50

267 9/8/2023 8:26:00 AM 20.40 39.70

268 9/8/2023 8:41:00 AM 20.40 39.90

269 9/8/2023 8:56:00 AM 20.40 40.20

270 9/8/2023 9:11:00 AM 20.50 40.40

271 9/8/2023 9:26:00 AM 20.50 40.70

272 9/8/2023 9:41:00 AM 20.60 40.90

273 9/8/2023 9:56:00 AM 20.70 41.10

274 9/8/2023 10:11:00 AM 20.70 41.40

275 9/8/2023 10:26:00 AM 20.80 41.50

276 9/8/2023 10:41:00 AM 20.90 41.70

277 9/8/2023 10:56:00 AM 21.00 41.70

278 9/8/2023 11:11:00 AM 21.00 41.80

279 9/8/2023 11:26:00 AM 21.10 41.80

280 9/8/2023 11:41:00 AM 21.20 41.90

281 9/8/2023 11:56:00 AM 21.30 41.90

282 9/8/2023 12:11:00 PM 21.30 42.00

283 9/8/2023 12:26:00 PM 21.40 42.10

284 9/8/2023 12:41:00 PM 21.50 42.10

285 9/8/2023 12:56:00 PM 21.60 42.10

286 9/8/2023 1:11:00 PM 21.60 42.10

287 9/8/2023 1:26:00 PM 21.70 42.30

288 9/8/2023 1:41:00 PM 21.70 42.50

289 9/8/2023 1:56:00 PM 21.80 42.70

Potrebbero piacerti anche